Time,TemperatureF,DewpointF,PressureIn,WindDirection,WindDirectionDegrees,WindSpeedMPH,WindSpeedGustMPH,Humidity,HourlyPrecipIn,Conditions,Clouds,dailyrainin,SoftwareType,DateUTC
2013-01-03 00:03:00,30.0,21.7,30.53,East,80,0.0,13.0,71,0.00,,,0.00,Weather View 32 v70,2013-01-03 08:03:00,
2013-01-03 00:08:00,29.8,21.5,30.53,SE,128,0.0,13.0,71,0.00,,,0.00,Weather View 32 v70,2013-01-03 08:08:00,
2013-01-03 00:13:00,29.8,21.5,30.53,East,80,6.0,13.0,71,0.00,,,0.00,Weather View 32 v70,2013-01-03 08:13:00,
2013-01-03 00:18:00,29.8,21.5,30.53,East,89,0.0,13.0,71,0.00,,,0.00,Weather View 32 v70,2013-01-03 08:18:00,
2013-01-03 00:23:00,29.8,21.5,30.53,ESE,121,5.0,13.0,71,0.00,,,0.00,Weather View 32 v70,2013-01-03 08:23:00,
2013-01-03 00:28:00,29.7,21.4,30.53,ESE,121,3.0,13.0,71,0.00,,,0.00,Weather View 32 v70,2013-01-03 08:28:00,
2013-01-03 00:33:00,29.7,21.4,30.52,SE,124,3.0,13.0,71,0.00,,,0.00,Weather View 32 v70,2013-01-03 08:33:00,
2013-01-03 00:38:00,29.7,21.8,30.52,East,90,0.0,13.0,72,0.00,,,0.00,Weather View 32 v70,2013-01-03 08:38:00,
2013-01-03 00:43:00,29.7,21.4,30.52,East,84,0.0,13.0,71,0.00,,,0.00,Weather View 32 v70,2013-01-03 08:43:00,
2013-01-03 00:48:00,29.7,21.4,30.52,East,84,0.0,13.0,71,0.00,,,0.00,Weather View 32 v70,2013-01-03 08:48:00,
2013-01-03 01:23:00,29.7,21.1,30.52,East,82,5.0,11.0,70,0.00,,,0.00,Weather View 32 v70,2013-01-03 09:23:00,
2013-01-03 01:28:00,29.7,21.1,30.52,East,96,7.0,14.0,70,0.00,,,0.00,Weather View 32 v70,2013-01-03 09:28:00,
2013-01-03 01:33:00,29.7,21.1,30.52,East,86,6.0,14.0,70,0.00,,,0.00,Weather View 32 v70,2013-01-03 09:33:00,
2013-01-03 01:38:00,29.5,20.9,30.52,East,98,0.0,14.0,70,0.00,,,0.00,Weather View 32 v70,2013-01-03 09:38:00,
2013-01-03 01:43:00,29.5,20.9,30.52,East,86,3.0,14.0,70,0.00,,,0.00,Weather View 32 v70,2013-01-03 09:43:00,
2013-01-03 01:48:00,29.5,20.6,30.52,East,82,5.0,14.0,69,0.00,,,0.00,Weather View 32 v70,2013-01-03 09:48:00,
2013-01-03 01:53:00,29.5,20.6,30.52,East,80,6.0,14.0,69,0.00,,,0.00,Weather View 32 v70,2013-01-03 09:53:00,
2013-01-03 01:58:00,29.5,20.9,30.53,East,87,0.0,14.0,70,0.00,,,0.00,Weather View 32 v70,2013-01-03 09:58:00,
2013-01-03 02:03:00,29.5,20.6,30.53,ENE,66,5.0,14.0,69,0.00,,,0.00,Weather View 32 v70,2013-01-03 10:03:00,
2013-01-03 02:08:00,29.5,20.6,30.53,ENE,72,4.0,14.0,69,0.00,,,0.00,Weather View 32 v70,2013-01-03 10:08:00,
2013-01-03 02:13:00,29.5,20.6,30.52,NE,53,2.0,14.0,69,0.00,,,0.00,Weather View 32 v70,2013-01-03 10:13:00,
2013-01-03 02:18:00,29.5,20.6,30.53,East,86,2.0,14.0,69,0.00,,,0.00,Weather View 32 v70,2013-01-03 10:18:00,
2013-01-03 02:23:00,29.5,20.6,30.52,East,90,5.0,14.0,69,0.00,,,0.00,Weather View 32 v70,2013-01-03 10:23:00,
2013-01-03 02:28:00,29.5,20.6,30.52,ENE,62,0.0,14.0,69,0.00,,,0.00,Weather View 32 v70,2013-01-03 10:28:00,
2013-01-03 02:33:00,29.5,20.6,30.53,ENE,60,0.0,11.0,69,0.00,,,0.00,Weather View 32 v70,2013-01-03 10:33:00,
2013-01-03 02:38:00,29.5,20.6,30.52,ENE,61,0.0,11.0,69,0.00,,,0.00,Weather View 32 v70,2013-01-03 10:38:00,
2013-01-03 02:43:00,29.5,20.6,30.52,East,80,0.0,11.0,69,0.00,,,0.00,Weather View 32 v70,2013-01-03 10:43:00,
2013-01-03 02:48:00,29.5,20.6,30.52,East,82,2.0,11.0,69,0.00,,,0.00,Weather View 32 v70,2013-01-03 10:48:00,
2013-01-03 02:53:00,29.4,20.5,30.52,ENE,78,0.0,11.0,69,0.00,,,0.00,Weather View 32 v70,2013-01-03 10:53:00,
2013-01-03 02:58:00,29.5,20.6,30.52,East,89,3.0,11.0,69,0.00,,,0.00,Weather View 32 v70,2013-01-03 10:58:00,
2013-01-03 03:03:00,29.5,20.6,30.52,East,95,5.0,11.0,69,0.00,,,0.00,Weather View 32 v70,2013-01-03 11:03:00,
2013-01-03 03:08:00,29.5,20.6,30.52,ENE,78,0.0,11.0,69,0.00,,,0.00,Weather View 32 v70,2013-01-03 11:08:00,
2013-01-03 03:13:00,29.5,20.9,30.52,ENE,78,0.0,10.0,70,0.00,,,0.00,Weather View 32 v70,2013-01-03 11:13:00,
2013-01-03 03:18:00,29.5,20.6,30.52,East,82,0.0,13.0,69,0.00,,,0.00,Weather View 32 v70,2013-01-03 11:18:00,
2013-01-03 03:23:00,29.4,20.5,30.51,East,81,5.0,13.0,69,0.00,,,0.00,Weather View 32 v70,2013-01-03 11:23:00,
2013-01-03 03:28:00,29.4,20.8,30.51,NE,53,0.0,13.0,70,0.00,,,0.00,Weather View 32 v70,2013-01-03 11:28:00,
2013-01-03 03:33:00,29.4,20.8,30.51,East,84,6.0,13.0,70,0.00,,,0.00,Weather View 32 v70,2013-01-03 11:33:00,
2013-01-03 03:38:00,29.4,20.5,30.50,ENE,70,2.0,13.0,69,0.00,,,0.00,Weather View 32 v70,2013-01-03 11:38:00,
2013-01-03 03:43:00,29.4,20.5,30.50,ENE,63,2.0,13.0,69,0.00,,,0.00,Weather View 32 v70,2013-01-03 11:43:00,
2013-01-03 03:48:00,29.4,20.5,30.50,East,82,3.0,13.0,69,0.00,,,0.00,Weather View 32 v70,2013-01-03 11:48:00,
2013-01-03 03:53:00,29.4,20.5,30.50,East,88,8.0,13.0,69,0.00,,,0.00,Weather View 32 v70,2013-01-03 11:53:00,
2013-01-03 03:58:00,29.4,20.5,30.50,East,92,0.0,13.0,69,0.00,,,0.00,Weather View 32 v70,2013-01-03 11:58:00,
2013-01-03 04:03:00,29.4,20.1,30.50,East,82,0.0,13.0,68,0.00,,,0.00,Weather View 32 v70,2013-01-03 12:03:00,
2013-01-03 04:08:00,29.5,20.6,30.50,East,92,0.0,13.0,69,0.00,,,0.00,Weather View 32 v70,2013-01-03 12:08:00,
2013-01-03 04:13:00,29.5,20.6,30.49,East,83,6.0,13.0,69,0.00,,,0.00,Weather View 32 v70,2013-01-03 12:13:00,
2013-01-03 04:18:00,29.5,20.6,30.49,East,80,0.0,10.0,69,0.00,,,0.00,Weather View 32 v70,2013-01-03 12:18:00,
2013-01-03 04:23:00,29.4,20.5,30.49,ENE,67,2.0,10.0,69,0.00,,,0.00,Weather View 32 v70,2013-01-03 12:23:00,
2013-01-03 04:28:00,29.5,20.6,30.48,East,80,0.0,10.0,69,0.00,,,0.00,Weather View 32 v70,2013-01-03 12:28:00,
2013-01-03 04:33:00,29.5,20.6,30.48,East,84,0.0,10.0,69,0.00,,,0.00,Weather View 32 v70,2013-01-03 12:33:00,
2013-01-03 04:38:00,29.5,20.6,30.48,ENE,78,3.0,10.0,69,0.00,,,0.00,Weather View 32 v70,2013-01-03 12:38:00,
2013-01-03 04:43:00,29.5,20.6,30.48,East,84,0.0,10.0,69,0.00,,,0.00,Weather View 32 v70,2013-01-03 12:43:00,
2013-01-03 04:48:00,29.5,20.6,30.48,East,80,3.0,10.0,69,0.00,,,0.00,Weather View 32 v70,2013-01-03 12:48:00,
2013-01-03 04:53:00,29.5,20.6,30.48,East,86,5.0,10.0,69,0.00,,,0.00,Weather View 32 v70,2013-01-03 12:53:00,
2013-01-03 04:58:00,29.5,20.9,30.47,ENE,58,0.0,10.0,70,0.00,,,0.00,Weather View 32 v70,2013-01-03 12:58:00,
2013-01-03 05:03:00,29.5,20.6,30.47,ENE,65,0.0,9.0,69,0.00,,,0.00,Weather View 32 v70,2013-01-03 13:03:00,
2013-01-03 05:08:00,29.5,20.6,30.47,ENE,76,0.0,9.0,69,0.00,,,0.00,Weather View 32 v70,2013-01-03 13:08:00,
2013-01-03 05:13:00,29.5,20.9,30.47,NE,55,5.0,9.0,70,0.00,,,0.00,Weather View 32 v70,2013-01-03 13:13:00,
2013-01-03 05:18:00,29.5,20.6,30.47,ENE,64,0.0,9.0,69,0.00,,,0.00,Weather View 32 v70,2013-01-03 13:18:00,
2013-01-03 05:23:00,29.5,20.6,30.47,ENE,68,4.0,9.0,69,0.00,,,0.00,Weather View 32 v70,2013-01-03 13:23:00,
2013-01-03 05:28:00,29.5,20.6,30.47,ENE,74,4.0,9.0,69,0.00,,,0.00,Weather View 32 v70,2013-01-03 13:28:00,
2013-01-03 05:33:00,29.7,20.8,30.47,East,84,3.0,8.0,69,0.00,,,0.00,Weather View 32 v70,2013-01-03 13:33:00,
2013-01-03 05:38:00,29.7,20.8,30.47,East,84,2.0,8.0,69,0.00,,,0.00,Weather View 32 v70,2013-01-03 13:38:00,
2013-01-03 05:43:00,29.7,20.8,30.47,East,82,5.0,8.0,69,0.00,,,0.00,Weather View 32 v70,2013-01-03 13:43:00,
2013-01-03 05:48:00,29.7,21.1,30.47,ENE,78,4.0,8.0,70,0.00,,,0.00,Weather View 32 v70,2013-01-03 13:48:00,
2013-01-03 05:53:00,29.7,21.1,30.47,East,83,5.0,9.0,70,0.00,,,0.00,Weather View 32 v70,2013-01-03 13:53:00,
2013-01-03 05:58:00,29.7,21.1,30.46,East,82,1.0,9.0,70,0.00,,,0.00,Weather View 32 v70,2013-01-03 13:58:00,
2013-01-03 06:03:00,29.7,21.1,30.46,East,88,0.0,9.0,70,0.00,,,0.00,Weather View 32 v70,2013-01-03 14:03:00,
2013-01-03 06:08:00,29.7,21.1,30.46,East,80,5.0,9.0,70,0.00,,,0.00,Weather View 32 v70,2013-01-03 14:08:00,
2013-01-03 06:13:00,29.7,21.1,30.46,ENE,63,0.0,10.0,70,0.00,,,0.00,Weather View 32 v70,2013-01-03 14:13:00,
2013-01-03 06:18:00,29.7,21.1,30.46,East,79,5.0,10.0,70,0.00,,,0.00,Weather View 32 v70,2013-01-03 14:18:00,
2013-01-03 06:23:00,29.7,21.1,30.46,ENE,71,0.0,10.0,70,0.00,,,0.00,Weather View 32 v70,2013-01-03 14:23:00,
2013-01-03 06:28:00,29.7,21.1,30.46,ENE,78,0.0,10.0,70,0.00,,,0.00,Weather View 32 v70,2013-01-03 14:28:00,
2013-01-03 06:33:00,29.7,21.1,30.45,ENE,65,0.0,10.0,70,0.00,,,0.00,Weather View 32 v70,2013-01-03 14:33:00,
2013-01-03 06:38:00,29.7,21.4,30.45,ENE,61,0.0,10.0,71,0.00,,,0.00,Weather View 32 v70,2013-01-03 14:38:00,
2013-01-03 06:43:00,29.7,21.1,30.45,ENE,76,0.0,10.0,70,0.00,,,0.00,Weather View 32 v70,2013-01-03 14:43:00,
2013-01-03 06:48:00,29.7,21.4,30.45,East,80,0.0,10.0,71,0.00,,,0.00,Weather View 32 v70,2013-01-03 14:48:00,
2013-01-03 06:53:00,29.7,21.4,30.45,East,86,0.0,10.0,71,0.00,,,0.00,Weather View 32 v70,2013-01-03 14:53:00,
2013-01-03 06:58:00,29.7,21.4,30.45,East,85,3.0,10.0,71,0.00,,,0.00,Weather View 32 v70,2013-01-03 14:58:00,
2013-01-03 07:03:00,29.7,21.1,30.45,East,81,3.0,12.0,70,0.00,,,0.00,Weather View 32 v70,2013-01-03 15:03:00,
2013-01-03 07:08:00,29.7,21.4,30.46,East,87,0.0,12.0,71,0.00,,,0.00,Weather View 32 v70,2013-01-03 15:08:00,
2013-01-03 07:13:00,29.7,21.4,30.46,East,84,7.0,12.0,71,0.00,,,0.00,Weather View 32 v70,2013-01-03 15:13:00,
2013-01-03 07:18:00,29.7,21.8,30.46,East,89,0.0,12.0,72,0.00,,,0.00,Weather View 32 v70,2013-01-03 15:18:00,
2013-01-03 07:23:00,29.7,21.8,30.46,East,88,1.0,12.0,72,0.00,,,0.00,Weather View 32 v70,2013-01-03 15:23:00,
2013-01-03 07:28:00,29.7,21.8,30.46,East,81,5.0,12.0,72,0.00,,,0.00,Weather View 32 v70,2013-01-03 15:28:00,
2013-01-03 07:33:00,29.7,21.8,30.46,East,91,0.0,12.0,72,0.00,,,0.00,Weather View 32 v70,2013-01-03 15:33:00,
2013-01-03 07:38:00,29.7,21.8,30.46,East,91,3.0,12.0,72,0.00,,,0.00,Weather View 32 v70,2013-01-03 15:38:00,
2013-01-03 07:43:00,29.7,21.8,30.46,East,79,1.0,12.0,72,0.00,,,0.00,Weather View 32 v70,2013-01-03 15:43:00,
2013-01-03 07:48:00,29.7,21.8,30.46,ENE,71,3.0,12.0,72,0.00,,,0.00,Weather View 32 v70,2013-01-03 15:48:00,
2013-01-03 07:53:00,29.5,21.6,30.46,ENE,74,0.0,12.0,72,0.00,,,0.00,Weather View 32 v70,2013-01-03 15:53:00,
2013-01-03 07:58:00,29.5,21.6,30.46,East,82,0.0,12.0,72,0.00,,,0.00,Weather View 32 v70,2013-01-03 15:58:00,
2013-01-03 08:03:00,29.5,21.6,30.46,East,86,5.0,12.0,72,0.00,,,0.00,Weather View 32 v70,2013-01-03 16:03:00,
2013-01-03 08:08:00,29.5,21.6,30.46,East,82,5.0,9.0,72,0.00,,,0.00,Weather View 32 v70,2013-01-03 16:08:00,
2013-01-03 08:13:00,29.7,21.8,30.46,ENE,77,0.0,9.0,72,0.00,,,0.00,Weather View 32 v70,2013-01-03 16:13:00,
2013-01-03 08:18:00,29.7,21.8,30.46,ENE,78,0.0,9.0,72,0.00,,,0.00,Weather View 32 v70,2013-01-03 16:18:00,
2013-01-03 08:23:00,29.7,21.8,30.46,ENE,76,0.0,9.0,72,0.00,,,0.00,Weather View 32 v70,2013-01-03 16:23:00,
2013-01-03 08:28:00,29.7,21.4,30.47,ENE,68,1.0,9.0,71,0.00,,,0.00,Weather View 32 v70,2013-01-03 16:28:00,
2013-01-03 08:33:00,29.7,21.4,30.47,ENE,78,1.0,9.0,71,0.00,,,0.00,Weather View 32 v70,2013-01-03 16:33:00,
2013-01-03 08:38:00,29.7,21.4,30.47,East,86,0.0,9.0,71,0.00,,,0.00,Weather View 32 v70,2013-01-03 16:38:00,
2013-01-03 08:43:00,29.7,21.4,30.47,East,88,6.0,9.0,71,0.00,,,0.00,Weather View 32 v70,2013-01-03 16:43:00,
2013-01-03 08:48:00,29.7,21.1,30.47,ESE,103,2.0,11.0,70,0.00,,,0.00,Weather View 32 v70,2013-01-03 16:48:00,
2013-01-03 08:53:00,29.7,21.1,30.47,East,80,0.0,11.0,70,0.00,,,0.00,Weather View 32 v70,2013-01-03 16:53:00,
2013-01-03 08:58:00,29.7,21.1,30.47,ESE,116,2.0,11.0,70,0.00,,,0.00,Weather View 32 v70,2013-01-03 16:58:00,
2013-01-03 09:03:00,29.7,21.1,30.47,East,88,2.0,12.0,70,0.00,,,0.00,Weather View 32 v70,2013-01-03 17:03:00,
2013-01-03 09:08:00,29.7,21.1,30.47,East,84,0.0,12.0,70,0.00,,,0.00,Weather View 32 v70,2013-01-03 17:08:00,
2013-01-03 09:13:00,29.7,21.1,30.47,East,91,0.0,12.0,70,0.00,,,0.00,Weather View 32 v70,2013-01-03 17:13:00,
2013-01-03 09:18:00,29.7,21.1,30.47,ESE,109,0.0,12.0,70,0.00,,,0.00,Weather View 32 v70,2013-01-03 17:18:00,
2013-01-03 09:23:00,29.7,20.8,30.47,East,88,7.0,12.0,69,0.00,,,0.00,Weather View 32 v70,2013-01-03 17:23:00,
2013-01-03 09:28:00,29.7,20.8,30.47,East,81,0.0,12.0,69,0.00,,,0.00,Weather View 32 v70,2013-01-03 17:28:00,
2013-01-03 09:33:00,29.7,20.8,30.47,East,81,3.0,12.0,69,0.00,,,0.00,Weather View 32 v70,2013-01-03 17:33:00,
2013-01-03 09:37:00,29.7,20.8,30.47,ENE,64,4.0,12.0,69,0.00,,,0.00,Weather View 32 v70,2013-01-03 17:37:00,
2013-01-03 09:42:00,29.7,20.8,30.47,ENE,63,0.0,12.0,69,0.00,,,0.00,Weather View 32 v70,2013-01-03 17:42:00,
2013-01-03 09:47:00,29.8,20.5,30.47,ESE,111,0.0,12.0,68,0.00,,,0.00,Weather View 32 v70,2013-01-03 17:47:00,
2013-01-03 09:52:00,29.8,20.5,30.47,East,86,7.0,12.0,68,0.00,,,0.00,Weather View 32 v70,2013-01-03 17:52:00,
2013-01-03 09:57:00,29.8,20.9,30.47,East,92,2.0,12.0,69,0.00,,,0.00,Weather View 32 v70,2013-01-03 17:57:00,
2013-01-03 10:02:00,29.8,20.5,30.47,ENE,78,5.0,13.0,68,0.00,,,0.00,Weather View 32 v70,2013-01-03 18:02:00,
2013-01-03 10:07:00,30.0,20.7,30.48,ENE,71,0.0,13.0,68,0.00,,,0.00,Weather View 32 v70,2013-01-03 18:07:00,
2013-01-03 10:12:00,30.0,21.1,30.47,East,89,5.0,13.0,69,0.00,,,0.00,Weather View 32 v70,2013-01-03 18:12:00,
2013-01-03 10:17:00,30.1,21.2,30.47,ENE,65,5.0,13.0,69,0.00,,,0.00,Weather View 32 v70,2013-01-03 18:17:00,
2013-01-03 10:22:00,30.1,21.2,30.47,East,86,0.0,13.0,69,0.00,,,0.00,Weather View 32 v70,2013-01-03 18:22:00,
2013-01-03 10:27:00,30.1,21.2,30.47,ENE,76,2.0,13.0,69,0.00,,,0.00,Weather View 32 v70,2013-01-03 18:27:00,
2013-01-03 10:32:00,30.1,21.2,30.47,East,90,6.0,13.0,69,0.00,,,0.00,Weather View 32 v70,2013-01-03 18:32:00,
2013-01-03 10:37:00,30.0,21.1,30.47,East,80,0.0,13.0,69,0.00,,,0.00,Weather View 32 v70,2013-01-03 18:37:00,
2013-01-03 10:42:00,30.0,21.1,30.47,ENE,71,4.0,13.0,69,0.00,,,0.00,Weather View 32 v70,2013-01-03 18:42:00,
2013-01-03 10:47:00,30.0,21.1,30.47,East,90,3.0,13.0,69,0.00,,,0.00,Weather View 32 v70,2013-01-03 18:47:00,
2013-01-03 10:52:00,30.0,21.1,30.47,NE,53,8.0,13.0,69,0.00,,,0.00,Weather View 32 v70,2013-01-03 18:52:00,
2013-01-03 10:57:00,30.0,21.1,30.47,ENE,78,2.0,13.0,69,0.00,,,0.00,Weather View 32 v70,2013-01-03 18:57:00,
2013-01-03 11:02:00,30.1,21.2,30.47,NE,52,2.0,12.0,69,0.00,,,0.00,Weather View 32 v70,2013-01-03 19:02:00,
2013-01-03 11:07:00,30.1,21.2,30.46,ENE,74,5.0,12.0,69,0.00,,,0.00,Weather View 32 v70,2013-01-03 19:07:00,
2013-01-03 11:12:00,30.1,21.2,30.46,ENE,69,2.0,12.0,69,0.00,,,0.00,Weather View 32 v70,2013-01-03 19:12:00,
2013-01-03 11:18:00,30.3,21.0,30.46,East,88,0.0,12.0,68,0.00,,,0.00,Weather View 32 v70,2013-01-03 19:18:00,
2013-01-03 11:58:00,30.3,21.0,30.43,East,84,2.0,16.0,68,0.00,,,0.00,Weather View 32 v70,2013-01-03 19:58:00,
2013-01-03 12:03:00,30.4,21.1,30.43,NE,48,1.0,16.0,68,0.00,,,0.00,Weather View 32 v70,2013-01-03 20:03:00,
2013-01-03 12:08:00,30.4,21.1,30.43,East,90,6.0,16.0,68,0.00,,,0.00,Weather View 32 v70,2013-01-03 20:08:00,
2013-01-03 12:13:00,30.3,21.0,30.43,East,88,5.0,16.0,68,0.00,,,0.00,Weather View 32 v70,2013-01-03 20:13:00,
2013-01-03 12:18:00,30.3,21.0,30.42,East,86,0.0,16.0,68,0.00,,,0.00,Weather View 32 v70,2013-01-03 20:18:00,
2013-01-03 12:23:00,30.3,21.0,30.42,East,87,7.0,16.0,68,0.00,,,0.00,Weather View 32 v70,2013-01-03 20:23:00,
2013-01-03 12:28:00,30.1,20.8,30.43,East,87,0.0,16.0,68,0.00,,,0.00,Weather View 32 v70,2013-01-03 20:28:00,
2013-01-03 12:33:00,30.3,21.3,30.43,ENE,58,0.0,16.0,69,0.00,,,0.00,Weather View 32 v70,2013-01-03 20:33:00,
2013-01-03 12:38:00,30.3,21.0,30.43,East,82,3.0,16.0,68,0.00,,,0.00,Weather View 32 v70,2013-01-03 20:38:00,
2013-01-03 12:43:00,30.3,21.0,30.42,ENE,57,3.0,16.0,68,0.00,,,0.00,Weather View 32 v70,2013-01-03 20:43:00,
2013-01-03 12:48:00,30.3,20.7,30.42,East,93,9.0,14.0,67,0.00,,,0.00,Weather View 32 v70,2013-01-03 20:48:00,
2013-01-03 12:53:00,30.1,20.8,30.42,East,94,6.0,14.0,68,0.00,,,0.00,Weather View 32 v70,2013-01-03 20:53:00,
2013-01-03 12:58:00,30.3,21.0,30.42,ENE,72,4.0,14.0,68,0.00,,,0.00,Weather View 32 v70,2013-01-03 20:58:00,
2013-01-03 13:03:00,30.3,21.3,30.41,ENE,78,3.0,14.0,69,0.00,,,0.00,Weather View 32 v70,2013-01-03 21:03:00,
2013-01-03 13:08:00,30.4,21.1,30.42,East,86,2.0,14.0,68,0.00,,,0.00,Weather View 32 v70,2013-01-03 21:08:00,
2013-01-03 13:13:00,30.4,21.1,30.42,ENE,70,2.0,13.0,68,0.00,,,0.00,Weather View 32 v70,2013-01-03 21:13:00,
2013-01-03 13:18:00,30.4,20.8,30.42,East,88,0.0,13.0,67,0.00,,,0.00,Weather View 32 v70,2013-01-03 21:18:00,
2013-01-03 13:23:00,30.4,20.8,30.41,East,87,1.0,13.0,67,0.00,,,0.00,Weather View 32 v70,2013-01-03 21:23:00,
2013-01-03 13:28:00,30.4,20.4,30.42,East,92,5.0,13.0,66,0.00,,,0.00,Weather View 32 v70,2013-01-03 21:28:00,
2013-01-03 13:33:00,30.4,20.8,30.42,ENE,76,9.0,13.0,67,0.00,,,0.00,Weather View 32 v70,2013-01-03 21:33:00,
2013-01-03 13:38:00,30.4,20.8,30.43,East,90,3.0,13.0,67,0.00,,,0.00,Weather View 32 v70,2013-01-03 21:38:00,
2013-01-03 13:43:00,30.4,20.4,30.42,ENE,71,2.0,13.0,66,0.00,,,0.00,Weather View 32 v70,2013-01-03 21:43:00,
2013-01-03 13:49:00,30.4,20.8,30.42,ENE,71,0.0,13.0,67,0.00,,,0.00,Weather View 32 v70,2013-01-03 21:49:00,
2013-01-03 13:54:00,30.6,20.2,30.42,ENE,78,5.0,13.0,65,0.00,,,0.00,Weather View 32 v70,2013-01-03 21:54:00,
2013-01-03 14:00:00,30.6,20.2,30.42,ENE,75,3.0,13.0,65,0.00,,,0.00,Weather View 32 v70,2013-01-03 22:00:00,
2013-01-03 14:04:00,30.7,20.7,30.42,ENE,78,0.0,13.0,66,0.00,,,0.00,Weather View 32 v70,2013-01-03 22:04:00,
2013-01-03 14:09:00,30.7,20.3,30.42,ENE,76,0.0,13.0,65,0.00,,,0.00,Weather View 32 v70,2013-01-03 22:09:00,
2013-01-03 14:14:00,30.9,20.9,30.42,East,80,0.0,13.0,66,0.00,,,0.00,Weather View 32 v70,2013-01-03 22:14:00,
2013-01-03 14:19:00,30.9,20.9,30.42,SE,129,0.0,11.0,66,0.00,,,0.00,Weather View 32 v70,2013-01-03 22:19:00,
2013-01-03 14:24:00,31.0,20.6,30.42,SSE,155,1.0,11.0,65,0.00,,,0.00,Weather View 32 v70,2013-01-03 22:24:00,
2013-01-03 14:29:00,31.0,20.6,30.42,East,91,1.0,9.0,65,0.00,,,0.00,Weather View 32 v70,2013-01-03 22:29:00,
2013-01-03 14:34:00,31.0,20.2,30.42,SE,130,0.0,8.0,64,0.00,,,0.00,Weather View 32 v70,2013-01-03 22:34:00,
2013-01-03 14:39:00,30.9,20.1,30.42,East,96,1.0,8.0,64,0.00,,,0.00,Weather View 32 v70,2013-01-03 22:39:00,
2013-01-03 14:44:00,31.0,20.6,30.42,East,96,0.0,8.0,65,0.00,,,0.00,Weather View 32 v70,2013-01-03 22:44:00,
2013-01-03 14:49:00,31.0,20.6,30.42,East,94,0.0,8.0,65,0.00,,,0.00,Weather View 32 v70,2013-01-03 22:49:00,
2013-01-03 14:54:00,31.0,20.6,30.42,East,94,0.0,8.0,65,0.00,,,0.00,Weather View 32 v70,2013-01-03 22:54:00,
2013-01-03 14:59:00,31.0,20.6,30.42,ESE,107,3.0,8.0,65,0.00,,,0.00,Weather View 32 v70,2013-01-03 22:59:00,
2013-01-03 15:04:00,31.0,20.6,30.42,East,79,5.0,7.0,65,0.00,,,0.00,Weather View 32 v70,2013-01-03 23:04:00,
2013-01-03 15:09:00,31.0,20.6,30.41,ENE,65,0.0,7.0,65,0.00,,,0.00,Weather View 32 v70,2013-01-03 23:09:00,
2013-01-03 15:14:00,30.9,20.5,30.41,ENE,65,0.0,7.0,65,0.00,,,0.00,Weather View 32 v70,2013-01-03 23:14:00,
2013-01-03 15:19:00,30.7,20.3,30.42,ENE,66,0.0,7.0,65,0.00,,,0.00,Weather View 32 v70,2013-01-03 23:19:00,
2013-01-03 15:24:00,30.7,20.3,30.42,East,82,2.0,7.0,65,0.00,,,0.00,Weather View 32 v70,2013-01-03 23:24:00,
2013-01-03 15:29:00,30.6,20.6,30.42,NE,54,0.0,7.0,66,0.00,,,0.00,Weather View 32 v70,2013-01-03 23:29:00,
2013-01-03 15:34:00,30.6,20.6,30.42,ENE,67,0.0,7.0,66,0.00,,,0.00,Weather View 32 v70,2013-01-03 23:34:00,
2013-01-03 15:39:00,30.6,20.6,30.42,ENE,67,0.0,7.0,66,0.00,,,0.00,Weather View 32 v70,2013-01-03 23:39:00,
2013-01-03 15:44:00,30.4,20.0,30.41,NE,53,0.0,7.0,65,0.00,,,0.00,Weather View 32 v70,2013-01-03 23:44:00,
2013-01-03 15:49:00,30.4,20.4,30.42,NE,53,0.0,7.0,66,0.00,,,0.00,Weather View 32 v70,2013-01-03 23:49:00,
2013-01-03 15:54:00,30.4,20.0,30.42,NE,53,0.0,7.0,65,0.00,,,0.00,Weather View 32 v70,2013-01-03 23:54:00,
2013-01-03 15:59:00,30.4,20.0,30.42,NE,53,0.0,7.0,65,0.00,,,0.00,Weather View 32 v70,2013-01-03 23:59:00,
2013-01-03 16:04:00,30.3,19.9,30.42,NE,53,0.0,7.0,65,0.00,,,0.00,Weather View 32 v70,2013-01-04 00:04:00,
2013-01-03 16:09:00,30.3,19.9,30.43,NE,53,0.0,7.0,65,0.00,,,0.00,Weather View 32 v70,2013-01-04 00:09:00,
2013-01-03 16:14:00,30.3,19.9,30.43,NE,53,0.0,7.0,65,0.00,,,0.00,Weather View 32 v70,2013-01-04 00:14:00,
2013-01-03 16:19:00,30.3,19.9,30.42,NE,53,0.0,7.0,65,0.00,,,0.00,Weather View 32 v70,2013-01-04 00:19:00,
2013-01-03 16:24:00,30.1,19.4,30.42,NE,54,0.0,7.0,64,0.00,,,0.00,Weather View 32 v70,2013-01-04 00:24:00,
2013-01-03 16:29:00,30.1,19.8,30.42,NE,54,0.0,5.0,65,0.00,,,0.00,Weather View 32 v70,2013-01-04 00:29:00,
2013-01-03 16:34:00,30.1,19.8,30.42,NE,54,0.0,5.0,65,0.00,,,0.00,Weather View 32 v70,2013-01-04 00:34:00,
2013-01-03 16:39:00,30.1,19.8,30.42,NE,54,0.0,5.0,65,0.00,,,0.00,Weather View 32 v70,2013-01-04 00:39:00,
2013-01-03 16:44:00,30.0,19.7,30.42,NE,54,0.0,3.0,65,0.00,,,0.00,Weather View 32 v70,2013-01-04 00:44:00,
2013-01-03 16:49:00,30.0,19.3,30.42,NE,54,0.0,3.0,64,0.00,,,0.00,Weather View 32 v70,2013-01-04 00:49:00,
2013-01-03 16:54:00,30.0,19.3,30.42,NE,54,0.0,3.0,64,0.00,,,0.00,Weather View 32 v70,2013-01-04 00:54:00,
2013-01-03 16:59:00,29.8,19.1,30.42,NE,54,0.0,2.0,64,0.00,,,0.00,Weather View 32 v70,2013-01-04 00:59:00,
2013-01-03 17:04:00,29.8,19.5,30.42,NE,54,0.0,2.0,65,0.00,,,0.00,Weather View 32 v70,2013-01-04 01:04:00,
2013-01-03 17:09:00,29.8,19.5,30.42,NE,54,0.0,2.0,65,0.00,,,0.00,Weather View 32 v70,2013-01-04 01:09:00,
2013-01-03 17:14:00,29.7,19.4,30.42,NE,54,0.0,0.0,65,0.00,,,0.00,Weather View 32 v70,2013-01-04 01:14:00,
2013-01-03 17:19:00,29.7,19.4,30.42,NE,54,0.0,0.0,65,0.00,,,0.00,Weather View 32 v70,2013-01-04 01:19:00,
2013-01-03 17:24:00,29.7,19.4,30.42,NE,54,0.0,0.0,65,0.00,,,0.00,Weather View 32 v70,2013-01-04 01:24:00,
2013-01-03 17:29:00,29.7,19.0,30.43,NE,54,0.0,0.0,64,0.00,,,0.00,Weather View 32 v70,2013-01-04 01:29:00,
2013-01-03 17:34:00,29.5,18.5,30.43,NE,54,0.0,0.0,63,0.00,,,0.00,Weather View 32 v70,2013-01-04 01:34:00,
2013-01-03 17:39:00,29.5,18.8,30.42,NE,54,0.0,0.0,64,0.00,,,0.00,Weather View 32 v70,2013-01-04 01:39:00,
2013-01-03 17:44:00,29.5,18.8,30.42,NE,54,0.0,0.0,64,0.00,,,0.00,Weather View 32 v70,2013-01-04 01:44:00,
2013-01-03 17:49:00,29.5,18.8,30.42,NE,54,0.0,0.0,64,0.00,,,0.00,Weather View 32 v70,2013-01-04 01:49:00,
2013-01-03 17:54:00,29.5,18.5,30.43,NE,55,0.0,4.0,63,0.00,,,0.00,Weather View 32 v70,2013-01-04 01:54:00,
2013-01-03 17:59:00,29.5,18.8,30.43,NE,55,0.0,4.0,64,0.00,,,0.00,Weather View 32 v70,2013-01-04 01:59:00,
2013-01-03 18:04:00,29.5,18.5,30.43,ENE,59,0.0,4.0,63,0.00,,,0.00,Weather View 32 v70,2013-01-04 02:04:00,
2013-01-03 18:09:00,29.5,18.5,30.43,ENE,67,2.0,4.0,63,0.00,,,0.00,Weather View 32 v70,2013-01-04 02:09:00,
2013-01-03 18:14:00,29.5,18.8,30.43,ENE,68,0.0,4.0,64,0.00,,,0.00,Weather View 32 v70,2013-01-04 02:14:00,
2013-01-03 18:19:00,29.4,18.4,30.43,ENE,68,0.0,4.0,63,0.00,,,0.00,Weather View 32 v70,2013-01-04 02:19:00,
2013-01-03 18:24:00,29.4,18.4,30.43,ENE,68,0.0,4.0,63,0.00,,,0.00,Weather View 32 v70,2013-01-04 02:24:00,
2013-01-03 18:29:00,29.3,18.3,30.43,ENE,68,0.0,4.0,63,0.00,,,0.00,Weather View 32 v70,2013-01-04 02:29:00,
2013-01-03 18:34:00,29.3,18.6,30.42,ENE,68,0.0,4.0,64,0.00,,,0.00,Weather View 32 v70,2013-01-04 02:34:00,
2013-01-03 18:39:00,29.3,18.6,30.42,ENE,68,0.0,4.0,64,0.00,,,0.00,Weather View 32 v70,2013-01-04 02:39:00,
2013-01-03 18:44:00,29.3,19.0,30.42,ENE,68,0.0,4.0,65,0.00,,,0.00,Weather View 32 v70,2013-01-04 02:44:00,
2013-01-03 18:49:00,29.3,19.0,30.43,ENE,68,0.0,4.0,65,0.00,,,0.00,Weather View 32 v70,2013-01-04 02:49:00,
2013-01-03 18:54:00,29.3,19.0,30.43,ENE,68,0.0,3.0,65,0.00,,,0.00,Weather View 32 v70,2013-01-04 02:54:00,
2013-01-03 18:59:00,29.1,18.4,30.43,ENE,68,0.0,3.0,64,0.00,,,0.00,Weather View 32 v70,2013-01-04 02:59:00,
2013-01-03 19:04:00,29.1,18.4,30.43,ENE,68,0.0,3.0,64,0.00,,,0.00,Weather View 32 v70,2013-01-04 03:04:00,
2013-01-03 19:09:00,29.1,18.4,30.43,ENE,68,0.0,3.0,64,0.00,,,0.00,Weather View 32 v70,2013-01-04 03:09:00,
2013-01-03 19:14:00,29.0,18.3,30.43,ENE,68,0.0,2.0,64,0.00,,,0.00,Weather View 32 v70,2013-01-04 03:14:00,
2013-01-03 19:19:00,29.0,18.7,30.43,ENE,68,0.0,2.0,65,0.00,,,0.00,Weather View 32 v70,2013-01-04 03:19:00,
2013-01-03 19:24:00,29.0,18.7,30.43,ENE,68,0.0,2.0,65,0.00,,,0.00,Weather View 32 v70,2013-01-04 03:24:00,
2013-01-03 19:29:00,29.0,18.7,30.43,ENE,68,0.0,2.0,65,0.00,,,0.00,Weather View 32 v70,2013-01-04 03:29:00,
2013-01-03 19:34:00,29.0,18.7,30.43,ENE,68,0.0,2.0,65,0.00,,,0.00,Weather View 32 v70,2013-01-04 03:34:00,
2013-01-03 19:39:00,29.0,19.1,30.43,ENE,68,0.0,3.0,66,0.00,,,0.00,Weather View 32 v70,2013-01-04 03:39:00,
2013-01-03 19:44:00,28.8,19.6,30.44,ENE,67,0.0,3.0,68,0.00,,,0.00,Weather View 32 v70,2013-01-04 03:44:00,
2013-01-03 19:49:00,28.7,19.8,30.43,ENE,67,0.0,3.0,69,0.00,,,0.00,Weather View 32 v70,2013-01-04 03:49:00,
2013-01-03 19:54:00,28.5,20.0,30.43,ENE,67,0.0,3.0,70,0.00,,,0.00,Weather View 32 v70,2013-01-04 03:54:00,
2013-01-03 19:59:00,28.5,20.3,30.43,ENE,67,0.0,3.0,71,0.00,,,0.00,Weather View 32 v70,2013-01-04 03:59:00,
2013-01-03 20:04:00,28.4,20.5,30.43,ENE,67,0.0,3.0,72,0.00,,,0.00,Weather View 32 v70,2013-01-04 04:04:00,
2013-01-03 20:09:00,28.4,20.9,30.43,ENE,67,0.0,3.0,73,0.00,,,0.00,Weather View 32 v70,2013-01-04 04:09:00,
2013-01-03 20:14:00,28.2,20.7,30.43,ENE,67,0.0,3.0,73,0.00,,,0.00,Weather View 32 v70,2013-01-04 04:14:00,
2013-01-03 20:19:00,28.2,20.7,30.43,ENE,67,0.0,3.0,73,0.00,,,0.00,Weather View 32 v70,2013-01-04 04:19:00,
2013-01-03 20:24:00,28.2,20.7,30.43,ENE,67,0.0,3.0,73,0.00,,,0.00,Weather View 32 v70,2013-01-04 04:24:00,
2013-01-03 20:29:00,28.2,20.7,30.43,ENE,67,0.0,3.0,73,0.00,,,0.00,Weather View 32 v70,2013-01-04 04:29:00,
2013-01-03 20:34:00,28.2,20.7,30.43,ENE,67,0.0,3.0,73,0.00,,,0.00,Weather View 32 v70,2013-01-04 04:34:00,
2013-01-03 20:39:00,28.2,20.7,30.43,ENE,67,0.0,3.0,73,0.00,,,0.00,Weather View 32 v70,2013-01-04 04:39:00,
2013-01-03 20:44:00,28.2,20.7,30.43,ENE,67,0.0,3.0,73,0.00,,,0.00,Weather View 32 v70,2013-01-04 04:44:00,
2013-01-03 20:49:00,28.2,20.7,30.43,ENE,67,0.0,2.0,73,0.00,,,0.00,Weather View 32 v70,2013-01-04 04:49:00,
2013-01-03 20:54:00,28.2,21.0,30.43,ENE,67,0.0,2.0,74,0.00,,,0.00,Weather View 32 v70,2013-01-04 04:54:00,
2013-01-03 20:59:00,28.2,21.0,30.44,ENE,67,0.0,2.0,74,0.00,,,0.00,Weather View 32 v70,2013-01-04 04:59:00,
2013-01-03 21:00:00,28.2,21.0,30.44,ENE,67,0.0,2.0,74,0.00,,,0.00,Weather View 32 v70,2013-01-04 05:00:00,
2013-01-03 21:04:00,28.1,21.2,30.44,ENE,67,0.0,2.0,75,0.00,,,0.00,Weather View 32 v70,2013-01-04 05:04:00,
2013-01-03 21:07:00,28.1,21.2,30.43,ENE,67,0.0,2.0,75,0.00,,,0.00,Weather View 32 v70,2013-01-04 05:07:00,
2013-01-03 21:12:00,27.9,21.3,30.44,ENE,67,0.0,2.0,76,0.00,,,0.00,Weather View 32 v70,2013-01-04 05:12:00,
2013-01-03 21:17:00,27.9,21.6,30.44,ENE,67,0.0,2.0,77,0.00,,,0.00,Weather View 32 v70,2013-01-04 05:17:00,
2013-01-03 21:22:00,27.8,21.5,30.44,ENE,67,0.0,2.0,77,0.00,,,0.00,Weather View 32 v70,2013-01-04 05:22:00,
2013-01-03 21:27:00,27.6,21.6,30.44,ENE,67,0.0,2.0,78,0.00,,,0.00,Weather View 32 v70,2013-01-04 05:27:00,
2013-01-03 21:32:00,27.6,21.6,30.44,ENE,67,0.0,2.0,78,0.00,,,0.00,Weather View 32 v70,2013-01-04 05:32:00,
2013-01-03 21:37:00,27.6,21.9,30.44,ENE,67,0.0,2.0,79,0.00,,,0.00,Weather View 32 v70,2013-01-04 05:37:00,
2013-01-03 21:42:00,27.6,21.9,30.44,ENE,67,0.0,2.0,79,0.00,,,0.00,Weather View 32 v70,2013-01-04 05:42:00,
2013-01-03 21:47:00,27.6,21.9,30.44,ENE,67,0.0,2.0,79,0.00,,,0.00,Weather View 32 v70,2013-01-04 05:47:00,
2013-01-03 21:52:00,27.6,21.9,30.44,ENE,67,0.0,2.0,79,0.00,,,0.00,Weather View 32 v70,2013-01-04 05:52:00,
2013-01-03 21:57:00,27.6,22.2,30.44,ENE,67,0.0,2.0,80,0.00,,,0.00,Weather View 32 v70,2013-01-04 05:57:00,
2013-01-03 22:02:00,27.5,22.1,30.44,ENE,67,0.0,0.0,80,0.00,,,0.00,Weather View 32 v70,2013-01-04 06:02:00,
2013-01-03 22:07:00,27.5,22.1,30.44,ENE,67,0.0,0.0,80,0.00,,,0.00,Weather View 32 v70,2013-01-04 06:07:00,
2013-01-03 22:12:00,27.5,22.4,30.44,ENE,67,0.0,0.0,81,0.00,,,0.00,Weather View 32 v70,2013-01-04 06:12:00,
2013-01-03 22:17:00,27.5,22.4,30.45,ENE,67,0.0,0.0,81,0.00,,,0.00,Weather View 32 v70,2013-01-04 06:17:00,
2013-01-03 22:22:00,27.5,22.4,30.45,ENE,67,0.0,0.0,81,0.00,,,0.00,Weather View 32 v70,2013-01-04 06:22:00,
2013-01-03 22:27:00,27.5,22.4,30.45,ENE,67,0.0,0.0,81,0.00,,,0.00,Weather View 32 v70,2013-01-04 06:27:00,
2013-01-03 22:32:00,27.5,22.4,30.45,ENE,67,0.0,0.0,81,0.00,,,0.00,Weather View 32 v70,2013-01-04 06:32:00,
2013-01-03 22:37:00,27.5,22.7,30.45,ENE,67,0.0,0.0,82,0.00,,,0.00,Weather View 32 v70,2013-01-04 06:37:00,
2013-01-03 22:42:00,27.5,22.7,30.45,ENE,67,0.0,0.0,82,0.00,,,0.00,Weather View 32 v70,2013-01-04 06:42:00,
2013-01-03 22:47:00,27.5,23.0,30.46,ENE,67,0.0,0.0,83,0.00,,,0.00,Weather View 32 v70,2013-01-04 06:47:00,
2013-01-03 22:52:00,27.5,23.0,30.46,ENE,67,0.0,0.0,83,0.00,,,0.00,Weather View 32 v70,2013-01-04 06:52:00,
2013-01-03 22:57:00,27.3,23.1,30.46,ENE,67,0.0,0.0,84,0.00,,,0.00,Weather View 32 v70,2013-01-04 06:57:00,
2013-01-03 23:02:00,27.3,23.1,30.46,ENE,67,0.0,0.0,84,0.00,,,0.00,Weather View 32 v70,2013-01-04 07:02:00,
2013-01-03 23:07:00,27.2,23.0,30.46,ENE,67,0.0,0.0,84,0.00,,,0.00,Weather View 32 v70,2013-01-04 07:07:00,
2013-01-03 23:12:00,27.2,23.0,30.46,ENE,67,0.0,0.0,84,0.00,,,0.00,Weather View 32 v70,2013-01-04 07:12:00,
2013-01-03 23:17:00,27.0,23.1,30.46,ENE,67,0.0,0.0,85,0.00,,,0.00,Weather View 32 v70,2013-01-04 07:17:00,
2013-01-03 23:22:00,27.0,23.1,30.46,ENE,67,0.0,0.0,85,0.00,,,0.00,Weather View 32 v70,2013-01-04 07:22:00,
2013-01-03 23:27:00,27.0,23.1,30.46,ENE,67,0.0,0.0,85,0.00,,,0.00,Weather View 32 v70,2013-01-04 07:27:00,
2013-01-03 23:32:00,27.0,23.1,30.46,ENE,67,0.0,0.0,85,0.00,,,0.00,Weather View 32 v70,2013-01-04 07:32:00,
2013-01-03 23:37:00,27.0,23.4,30.46,ENE,67,0.0,0.0,86,0.00,,,0.00,Weather View 32 v70,2013-01-04 07:37:00,
2013-01-03 23:42:00,27.0,23.4,30.46,ENE,67,0.0,0.0,86,0.00,,,0.00,Weather View 32 v70,2013-01-04 07:42:00,
2013-01-03 23:47:00,26.9,23.3,30.46,ENE,67,0.0,0.0,86,0.00,,,0.00,Weather View 32 v70,2013-01-04 07:47:00,
2013-01-03 23:52:00,26.9,23.3,30.46,ENE,67,0.0,0.0,86,0.00,,,0.00,Weather View 32 v70,2013-01-04 07:52:00,
2013-01-03 23:57:00,26.9,23.3,30.46,ENE,67,0.0,0.0,86,0.00,,,0.00,Weather View 32 v70,2013-01-04 07:57:00,